• In Italy
  • List of Countries
  • For 7 days
  • Water Temperature
  • Satellite Maps
  • Weather Map
  • Weather Widgets
  • user-avatar
    Login

    Hourly Weather Farum

    Today, 18 September, Tuesday

    Time Temperature Precipitation Wind Pressure Humidity
    00:00 +16°C° 0 mm 3 mps 758 mmHg 83%
    01:00 +16°C° 0 mm 3 mps 758 mmHg 84%
    02:00 +16°C° 0 mm 3 mps 758 mmHg 83%
    03:00 +16°C° 0 mm 3 mps 757 mmHg 82%
    04:00 +15°C° 0 mm 4 mps 757 mmHg 81%
    05:00 +15°C° 0 mm 4 mps 757 mmHg 80%
    06:00 +15°C° 0 mm 4 mps 757 mmHg 79%
    07:00 +15°C° 0 mm 4 mps 757 mmHg 78%
    08:00 +18°C° 0 mm 4 mps 757 mmHg 71%
    09:00 +20°C° 0 mm 5 mps 756 mmHg 65%
    10:00 +21°C° 0 mm 5 mps 756 mmHg 59%
    11:00 +22°C° 0 mm 6 mps 756 mmHg 55%
    12:00 +23°C° 0 mm 6 mps 755 mmHg 51%
    13:00 +24°C° 0 mm 7 mps 755 mmHg 47%
    14:00 +24°C° 0 mm 7 mps 755 mmHg 48%
    15:00 +24°C° 0 mm 7 mps 754 mmHg 48%
    16:00 +24°C° 0 mm 6 mps 754 mmHg 48%
    17:00 +23°C° 0 mm 6 mps 754 mmHg 52%
    18:00 +22°C° 0 mm 6 mps 754 mmHg 56%
    19:00 +21°C° 0 mm 5 mps 754 mmHg 59%
    20:00 +20°C° 0 mm 5 mps 754 mmHg 66%
    21:00 +19°C° 0 mm 5 mps 754 mmHg 72%
    22:00 +17°C° 0 mm 5 mps 755 mmHg 78%
    23:00 +17°C° 0 mm 5 mps 755 mmHg 82%

    Tomorrow, 19 September, Wednesday

    Time Temperature Precipitation Wind Pressure Humidity
    00:00 +16°C° 0 mm 5 mps 755 mmHg 86%
    01:00 +16°C° 0 mm 5 mps 755 mmHg 90%
    02:00 +16°C° 0 mm 5 mps 755 mmHg 91%
    03:00 +15°C° 0 mm 5 mps 756 mmHg 92%
    04:00 +15°C° 0 mm 5 mps 756 mmHg 93%
    05:00 +15°C° 0 mm 5 mps 756 mmHg 93%
    06:00 +15°C° 0 mm 5 mps 756 mmHg 92%
    07:00 +15°C° 0 mm 5 mps 757 mmHg 92%
    08:00 +17°C° 0 mm 5 mps 757 mmHg 86%
    09:00 +19°C° 0 mm 5 mps 757 mmHg 80%
    10:00 +20°C° 0 mm 5 mps 757 mmHg 74%
    11:00 +20°C° 0 mm 5 mps 758 mmHg 71%
    12:00 +21°C° 0 mm 6 mps 758 mmHg 69%
    13:00 +22°C° 0 mm 6 mps 758 mmHg 66%
    14:00 +21°C° 0 mm 6 mps 757 mmHg 66%
    15:00 +21°C° 0 mm 6 mps 757 mmHg 67%
    16:00 +21°C° 0 mm 6 mps 757 mmHg 67%
    17:00 +20°C° 0 mm 5 mps 757 mmHg 71%
    18:00 +19°C° 0 mm 4 mps 757 mmHg 74%
    19:00 +18°C° 0 mm 4 mps 757 mmHg 78%
    20:00 +19°C° 0 mm 4 mps 757 mmHg 77%
    21:00 +19°C° 0 mm 5 mps 756 mmHg 76%
    22:00 +19°C° 0 mm 6 mps 756 mmHg 75%
    23:00 +19°C° 0 mm 6 mps 756 mmHg 77%

    Day after tomorrow, 20 September, Thursday

    Time Temperature Precipitation Wind Pressure Humidity
    00:00 +17°C° 0 mm 6 mps 756 mmHg 78%
    01:00 +17°C° 0 mm 6 mps 755 mmHg 80%
    02:00 +17°C° 0 mm 6 mps 755 mmHg 81%
    03:00 +17°C° 0 mm 6 mps 755 mmHg 83%
    04:00 +16°C° 0 mm 6 mps 755 mmHg 84%
    05:00 +16°C° 0 mm 6 mps 756 mmHg 85%
    06:00 +16°C° 0 mm 6 mps 756 mmHg 85%
    07:00 +16°C° 0 mm 6 mps 756 mmHg 86%
    08:00 +17°C° 0 mm 6 mps 756 mmHg 82%
    09:00 +19°C° 0 mm 6 mps 756 mmHg 79%
    10:00 +20°C° 0 mm 6 mps 757 mmHg 75%
    11:00 +20°C° 0 mm 6 mps 756 mmHg 75%
    12:00 +20°C° 0 mm 6 mps 756 mmHg 74%
    13:00 +20°C° 0 mm 6 mps 756 mmHg 73%
    14:00 +20°C° 0 mm 7 mps 756 mmHg 70%
    15:00 +21°C° 0 mm 7 mps 755 mmHg 68%
    16:00 +21°C° 0 mm 8 mps 755 mmHg 65%
    17:00 +20°C° 0 mm 7 mps 754 mmHg 67%
    18:00 +20°C° 0 mm 6 mps 754 mmHg 69%
    19:00 +19°C° 0 mm 5 mps 754 mmHg 71%
    20:00 +19°C° 0 mm 5 mps 754 mmHg 74%
    21:00 +17°C° 0 mm 5 mps 753 mmHg 77%
    22:00 +18°C° 0 mm 4 mps 753 mmHg 80%
    23:00 +17°C° 0 mm 5 mps 752 mmHg 78%

    21 September, Friday

    Time Temperature Precipitation Wind Pressure Humidity
    00:00 +17°C° 0 mm 6 mps 751 mmHg 76%
    01:00 +18°C° 0 mm 7 mps 751 mmHg 74%
    02:00 +18°C° 0 mm 7 mps 750 mmHg 72%
    03:00 +18°C° 0 mm 8 mps 749 mmHg 70%
    04:00 +18°C° 0 mm 8 mps 748 mmHg 69%
    05:00 +18°C° 0 mm 9 mps 748 mmHg 68%
    06:00 +19°C° 0 mm 9 mps 747 mmHg 68%
    07:00 +19°C° 0 mm 9 mps 746 mmHg 67%
    08:00 +19°C° 0.1 mm 10 mps 746 mmHg 65%
    09:00 +21°C° 0.1 mm 10 mps 745 mmHg 64%
    10:00 +21°C° 0.1 mm 10 mps 745 mmHg 62%
    11:00 +19°C° 1.3 mm 10 mps 745 mmHg 68%
    12:00 +18°C° 1.3 mm 10 mps 745 mmHg 75%
    13:00 +16°C° 1.3 mm 9 mps 746 mmHg 81%
    14:00 +16°C° 0.2 mm 9 mps 746 mmHg 76%
    15:00 +15°C° 0.2 mm 9 mps 747 mmHg 71%
    16:00 +15°C° 0.2 mm 8 mps 747 mmHg 66%
    17:00 +13°C° 0 mm 8 mps 747 mmHg 65%
    18:00 +12°C° 0 mm 8 mps 748 mmHg 65%
    19:00 +12°C° 0 mm 8 mps 748 mmHg 64%
    20:00 +11°C° 0.1 mm 8 mps 749 mmHg 66%
    21:00 +11°C° 0.1 mm 8 mps 749 mmHg 67%
    22:00 +11°C° 0.1 mm 8 mps 750 mmHg 69%
    23:00 +10°C° 0.1 mm 8 mps 750 mmHg 69%

    22 September, Saturday

    Time Temperature Precipitation Wind Pressure Humidity
    00:00 +10°C° 0.1 mm 8 mps 751 mmHg 69%
    01:00 +10°C° 0.1 mm 8 mps 751 mmHg 69%
    02:00 +10°C° 0.1 mm 8 mps 752 mmHg 68%
    03:00 +10°C° 0.1 mm 8 mps 753 mmHg 68%
    04:00 +10°C° 0.1 mm 9 mps 754 mmHg 67%
    05:00 +10°C° 0 mm 8 mps 754 mmHg 68%
    06:00 +10°C° 0 mm 8 mps 755 mmHg 68%
    07:00 +10°C° 0 mm 7 mps 755 mmHg 69%
    08:00 +11°C° 0.2 mm 8 mps 755 mmHg 67%
    09:00 +12°C° 0.2 mm 8 mps 756 mmHg 64%
    10:00 +13°C° 0.2 mm 9 mps 756 mmHg 61%
    11:00 +13°C° 0.3 mm 9 mps 756 mmHg 60%
    12:00 +13°C° 0.3 mm 9 mps 756 mmHg 59%
    13:00 +15°C° 0.3 mm 9 mps 756 mmHg 58%
    14:00 +13°C° 0.4 mm 9 mps 756 mmHg 60%
    15:00 +13°C° 0.4 mm 8 mps 756 mmHg 61%
    16:00 +12°C° 0.4 mm 8 mps 757 mmHg 63%
    17:00 +12°C° 0.1 mm 8 mps 757 mmHg 65%
    18:00 +11°C° 0.1 mm 7 mps 757 mmHg 68%
    19:00 +10°C° 0.1 mm 7 mps 758 mmHg 71%
    20:00 +10°C° 0 mm 7 mps 758 mmHg 71%
    21:00 +9°C° 0 mm 7 mps 758 mmHg 71%
    22:00 +9°C° 0 mm 7 mps 759 mmHg 71%
    23:00 +9°C° 0 mm 7 mps 759 mmHg 71%

    23 September, Sunday

    Time Temperature Precipitation Wind Pressure Humidity
    00:00 +9°C° 0 mm 6 mps 759 mmHg 71%
    01:00 +8°C° 0 mm 6 mps 759 mmHg 71%
    02:00 +8°C° 0 mm 6 mps 759 mmHg 71%
    03:00 +8°C° 0 mm 6 mps 759 mmHg 72%
    04:00 +8°C° 0 mm 5 mps 759 mmHg 72%
    05:00 +8°C° 0 mm 5 mps 758 mmHg 71%
    06:00 +8°C° 0 mm 4 mps 758 mmHg 71%
    07:00 +10°C° 0 mm 4 mps 757 mmHg 71%
    08:00 +10°C° 0 mm 4 mps 757 mmHg 68%
    09:00 +10°C° 0 mm 5 mps 756 mmHg 66%
    10:00 +11°C° 0 mm 6 mps 756 mmHg 63%
    11:00 +11°C° 0.3 mm 7 mps 754 mmHg 66%
    12:00 +11°C° 0.3 mm 8 mps 753 mmHg 68%
    13:00 +11°C° 0.3 mm 9 mps 752 mmHg 71%
    14:00 +9°C° 2.1 mm 11 mps 750 mmHg 76%
    15:00 +9°C° 2.1 mm 12 mps 748 mmHg 81%
    16:00 +9°C° 2.1 mm 13 mps 746 mmHg 86%
    17:00 +9°C° 1.6 mm 13 mps 745 mmHg 86%
    18:00 +10°C° 1.6 mm 13 mps 743 mmHg 87%
    19:00 +10°C° 1.6 mm 13 mps 741 mmHg 88%
    20:00 +12°C° 1.1 mm 12 mps 740 mmHg 87%
    21:00 +12°C° 1.1 mm 11 mps 738 mmHg 86%
    22:00 +13°C° 1.1 mm 9 mps 737 mmHg 85%
    23:00 +12°C° 0.2 mm 8 mps 736 mmHg 84%
    Show more